[Date Prev][Date Next][Thread Prev][Thread Next] - [Date Index][Thread Index][Author Index]
2 Line ISS Keps 7-18
- Subject: [sarex] 2 Line ISS Keps 7-18
- From: "Dave Larsen PhD" <doc@xxxxxxxxxxx>
- Date: Wed, 18 Jul 2001 02:27:24 -0700
ISS
1 25544U 98067A 01199.23708707 .00004777 00000-0 56224-4 0 2243
2 25544 51.5690 291.4904 0015540 292.2580 158.6353 15.63465858151931
----
Via the sarex mailing list at AMSAT.ORG courtesy of AMSAT-NA.
To unsubscribe, send "unsubscribe sarex" to Majordomo@amsat.org
AMSAT Home